[[{"header":{"parameterUnit":"m.s-1","parameterCategory":1,"la1":30.2991,"la2":30.254,"lo1":-89.0895,"lo2":-89.0444,"dy":0.0017,"dx":0.0017,"nx":28,"ny":28,"refTime":"2025-02-13T03:00:00:Z","depth":0,"parameterNumber":2,"parameterNumberName":"U-component_of_WINDS"},"data":[0,0,0,0,0,0,0,0,0,0,0,0,0,0,0,0,0,0,0,0,0,0,0,0,0,0,0,0,0,0,0,0,0,0,0,0,0,0,0,0,0,0,0,0,0,0,0,0,0,0,0,0,0,0,0,0,0,0,-6.0286,-6.0286,0,-6.0328,-6.0329,-6.0329,-6.0187,-6.0183,-6.0179,-6.0175,-6.0221,-6.0226,-6.0231,0,0,0,0,0,0,0,0,0,0,0,0,0,-6.0084,-6.0089,-6.0286,-6.0286,-6.0287,-6.0328,-6.0329,-6.0329,-6.0188,-6.0183,-6.0178,-6.0173,-6.0219,-6.0225,-6.0231,0,0,0,0,0,0,0,0,0,0,0,0,0,-6.0154,-6.009,-6.0286,-6.0221,-6.0216,-6.0328,-6.0329,-6.0329,-6.0189,-6.0183,-6.0176,-6.017,-6.0217,-6.0225,-6.0232,-6.0409,0,0,-6.0256,-6.026,0,0,0,0,0,0,0,0,-6.015,-6.0162,-6.023,-6.0226,-6.022,-6.0246,-6.0274,-6.0356,-6.0191,-6.0199,-6.0174,-6.0167,-6.0234,-6.024,-6.0263,-6.0412,-6.0414,-6.0257,-6.0262,-6.0265,-6.0267,0,0,0,0,0,0,0,-6.0146,-6.0159,-6.0302,-6.0231,-6.0225,-6.0191,-6.0194,-6.0289,-6.0253,-6.0198,-6.0188,-6.0195,-6.023,-6.0255,-6.0263,-6.0414,-6.0257,-6.0264,-6.0269,-6.0272,-6.0712,-6.0719,0,0,0,0,0,0,-6.0149,-6.0156,-6.0301,-6.0304,-6.0168,-6.02,-6.0203,-6.0244,-6.0251,-6.0246,-6.02,-6.0188,-6.0245,-6.0254,-6.0264,-6.0473,-6.0265,-6.0272,-6.0277,-6.0705,-6.0714,-6.0721,0,0,0,0,0,0,-6.0145,-6.0163,-6.0299,-6.0227,-6.0242,-6.021,-6.0257,-6.0248,-6.0273,-6.0253,-6.0245,-6.0232,-6.024,-6.0253,-6.0374,-6.0472,-6.0276,-6.0283,-6.0697,-6.0708,-6.0717,-6.0892,0,0,0,0,0,0,-6.014,-6.0163,-6.0229,-6.023,-6.0246,-6.0409,-6.0263,-6.0254,-6.0287,-6.0271,-6.0281,-6.0276,-6.0236,-6.0363,-6.0382,-6.0479,-6.0289,-6.0688,-6.0702,-6.0714,-6.0877,-6.0907,-6.0932,0,0,0,0,0,-6.0133,-6.0277,-6.0233,-6.0252,-6.0328,-6.0415,-6.0424,-6.0375,-6.0295,-6.0362,-6.0349,-6.0276,-6.0458,-6.0377,-6.0397,-6.0498,-6.0682,-6.0698,-6.0713,-6.0865,-6.0901,-6.0932,0,0,0,0,0,0,-6.0289,-6.0276,-6.0227,-6.0375,-6.0397,-6.0391,-6.0474,-6.0415,-6.0461,-6.0444,-6.0381,-6.0385,-6.0518,-6.052,-6.043,-6.0671,-6.0556,-6.0577,-6.0665,-6.0699,-6.0726,-6.0724,-6.0296,0,0,0,0,0,-6.0341,-6.0411,-6.0396,-6.0528,-6.0541,-6.0506,-6.0542,-6.0502,-6.0522,-6.0531,-6.0527,-6.0551,-6.0613,-6.0656,-6.0712,-6.0876,-6.0877,-6.0956,-6.0983,-6.1006,-6.1025,-6.1113,-6.1148,-6.0773,-6.0773,-6.0773,0,0,-6.0448,-6.0449,-6.0498,-6.0559,-6.0571,-6.0647,-6.0515,-6.06,-6.0656,-6.0544,-6.0659,-6.0657,-6.068,-6.0824,-6.0887,-6.0829,-6.1129,-6.1026,-6.1044,-6.1051,-6.1133,-6.1169,-6.12,-6.0784,-6.0782,-6.078,0,0,-6.0682,-6.069,-6.0801,-6.0816,-6.0836,-6.0812,-6.0839,-6.0842,-6.0837,-6.095,-6.0869,-6.0935,-6.1043,-6.1063,-6.1087,-6.133,-6.1266,-6.135,-6.1495,-6.1582,-6.1612,-6.1638,-6.1726,-6.1758,-6.1369,-6.137,-6.137,0,-6.0813,-6.0923,-6.0866,-6.0957,-6.0987,-6.0889,-6.1002,-6.1019,-6.1058,-6.1082,-6.1016,-6.1151,-6.1159,-6.1307,-6.1367,-6.1389,-6.1419,-6.135,-6.1612,-6.1637,-6.1661,-6.1744,-6.1777,-6.138,-6.1379,-6.1378,-6.1377,0,-6.1084,-6.1161,-6.1249,-6.1288,-6.1328,-6.143,-6.1389,-6.1436,-6.1393,-6.1376,-6.1494,-6.15,-6.1557,-6.1589,-6.1547,-6.1732,-6.1695,-6.1622,-6.1506,-6.1708,-6.1785,-6.1817,-6.1395,-6.1391,-6.1388,-6.1385,0,0,-6.1418,-6.1424,-6.1457,-6.1474,-6.149,-6.1549,-6.1647,-6.1702,-6.1744,-6.1774,-6.1856,-6.1951,-6.1883,-6.1911,-6.1871,-6.1947,-6.2141,-6.1864,-6.1864,-6.1917,-6.2347,-6.2403,-6.244,-6.2098,-6.2103,-6.2108,-6.2345,0,-6.1649,-6.1816,-6.1767,-6.1935,-6.2007,-6.1915,-6.2001,-6.202,-6.2008,-6.2067,-6.2053,-6.2122,-6.2026,-6.2043,-6.2114,-6.2102,-6.2227,-6.2084,-6.2174,-6.2178,-6.2173,-6.2481,-6.254,-6.2763,-6.2375,-6.238,-6.2384,0,-6.1941,-6.1982,-6.2158,-6.2162,-6.2191,-6.2268,-6.2315,-6.2373,-6.2394,-6.2379,-6.2411,-6.2356,-6.2453,-6.2336,-6.247,-6.2375,-6.2409,-6.2409,-6.2416,-6.2424,-6.2294,-6.2498,-6.2833,-6.2868,-6.243,-6.2427,-6.2423,0,-6.2169,-6.2268,-6.2386,-6.2404,-6.2412,-6.2469,-6.2475,-6.2489,-6.2525,-6.2567,-6.259,-6.2642,-6.2672,-6.2714,-6.2675,-6.2593,-6.2816,-6.2695,-6.2808,-6.281,-6.286,-6.2858,-6.3207,-6.288,-6.288,-6.2879,-6.2879,0,-6.2433,-6.2545,-6.2489,-6.2562,-6.2684,-6.2628,-6.2751,-6.2746,-6.276,-6.2831,-6.2755,-6.2824,-6.2767,-6.2831,-6.2801,-6.2918,-6.2931,-6.2923,-6.2914,-6.2931,-6.2932,-6.2953,-6.2937,-6.2888,-6.2886,-6.2884,-6.2883,0,-6.2709,-6.2676,-6.2799,-6.2796,-6.2798,-6.2889,-6.2887,-6.2955,-6.2936,-6.3028,-6.3046,-6.3017,-6.3089,-6.3054,-6.3128,-6.3108,-6.326,-6.3229,-6.3253,-6.3245,-6.3361,-6.3351,-6.3737,-6.3785,-6.3426,-6.343,-6.3432,0,-6.2881,-6.2964,-6.2971,-6.3013,-6.3024,-6.3092,-6.3129,-6.3077,-6.3119,-6.3149,-6.3214,-6.3279,-6.3328,-6.3447,-6.3434,-6.3491,-6.3462,-6.3593,-6.347,-6.3485,-6.3466,-6.3462,-6.3471,-6.3619,-6.3623,-6.3626,-6.3629,0,-6.3189,-6.3169,-6.3224,-6.3275,-6.3321,-6.3358,-6.3389,-6.3428,-6.3377,-6.3428,-6.35,-6.3538,-6.3614,-6.368,-6.373,-6.3737,-6.3677,-6.3668,-6.3697,-6.3716,-6.3727,-6.3724,-6.3322,-6.3659,-6.3656,-6.3654,-6.3652,-6.3651,-6.3419,-6.3489,-6.3505,-6.357,-6.3588,-6.3619,-6.3683,-6.3672,-6.3731,-6.3788,-6.3754,-6.3839,-6.3859,-6.3919,-6.3935,-6.4002,-6.395,-6.3992,-6.4003,-6.4015,-6.4031,-6.3715,-6.401,-6.4009,-6.4009,-6.4008,-6.4007,0,-6.3725,-6.373,-6.379,-6.3836,-6.3888,-6.3824,-6.3855,-6.3903,-6.3978,-6.4001,-6.4051,-6.4135,-6.4199,-6.4191,-6.4249,-6.4304,-6.4278,-6.4322,-6.4318,-6.4321,-6.4073,-6.4042,-6.4342,-6.4342,-6.4342,-6.4342,-6.4342,-6.4342,-6.389,-6.4006,-6.3988,-6.4112,-6.4117,-6.4199,-6.4223,-6.4252,-6.427,-6.4367,-6.4419,-6.4413,-6.4424,-6.4483,-6.4539,-6.4535,-6.4561,-6.4616,-6.4603,-6.4371,-6.4338,-6.4307,-6.4278,-6.4622,-6.4622,-6.4845,-6.4847,-6.4848]},{"header":{"parameterUnit":"m.s-1","parameterCategory":1,"la1":30.2991,"la2":30.254,"lo1":-89.0895,"lo2":-89.0444,"dy":0.0017,"dx":0.0017,"nx":28,"ny":28,"refTime":"2025-02-13T03:00:00:Z","depth":0,"parameterNumber":3,"parameterNumberName":"V-component_of_WINDS"},"data":[0,0,0,0,0,0,0,0,0,0,0,0,0,0,0,0,0,0,0,0,0,0,0,0,0,0,0,0,0,0,0,0,0,0,0,0,0,0,0,0,0,0,0,0,0,0,0,0,0,0,0,0,0,0,0,0,0,0,-2.43,-2.43,0,-2.4317,-2.4317,-2.4317,-2.4307,-2.4306,-2.4306,-2.4305,-2.4322,-2.4323,-2.4324,0,0,0,0,0,0,0,0,0,0,0,0,0,-2.4257,-2.4258,-2.43,-2.4301,-2.4301,-2.4317,-2.4317,-2.4317,-2.4307,-2.4306,-2.4306,-2.4305,-2.4321,-2.4323,-2.4324,0,0,0,0,0,0,0,0,0,0,0,0,0,-2.4275,-2.4258,-2.43,-2.4297,-2.4297,-2.4317,-2.4317,-2.4317,-2.4307,-2.4306,-2.4306,-2.4305,-2.4321,-2.4322,-2.4324,-2.4347,0,0,-2.4328,-2.4328,0,0,0,0,0,0,0,0,-2.4274,-2.4277,-2.4298,-2.4298,-2.4298,-2.4309,-2.4308,-2.4327,-2.4307,-2.4303,-2.4305,-2.4305,-2.4318,-2.432,-2.4324,-2.4347,-2.4348,-2.4328,-2.4329,-2.4329,-2.433,0,0,0,0,0,0,0,-2.4273,-2.4276,-2.4307,-2.4298,-2.4298,-2.4295,-2.4296,-2.4312,-2.4315,-2.4304,-2.4303,-2.4305,-2.4318,-2.4323,-2.4325,-2.4348,-2.4328,-2.4329,-2.433,-2.433,-2.4389,-2.4389,0,0,0,0,0,0,-2.4272,-2.4275,-2.4306,-2.4307,-2.4284,-2.4296,-2.4298,-2.4306,-2.4314,-2.4315,-2.4306,-2.4305,-2.4321,-2.4323,-2.4325,-2.4351,-2.4329,-2.4331,-2.4331,-2.4388,-2.4389,-2.439,0,0,0,0,0,0,-2.4271,-2.4275,-2.4306,-2.4291,-2.4295,-2.4298,-2.4307,-2.4307,-2.4312,-2.4316,-2.4316,-2.4311,-2.4321,-2.4323,-2.4341,-2.4352,-2.4331,-2.4332,-2.4387,-2.4388,-2.4389,-2.4404,0,0,0,0,0,0,-2.427,-2.4275,-2.4284,-2.4291,-2.4295,-2.4322,-2.4308,-2.4308,-2.4314,-2.4313,-2.4321,-2.4321,-2.432,-2.4339,-2.4342,-2.4353,-2.4333,-2.4386,-2.4388,-2.4389,-2.4403,-2.4406,-2.4408,0,0,0,0,0,-2.4268,-2.4288,-2.4285,-2.4289,-2.4307,-2.4323,-2.4325,-2.4324,-2.4315,-2.4324,-2.4326,-2.4321,-2.435,-2.4341,-2.4345,-2.4356,-2.4386,-2.4387,-2.4389,-2.4402,-2.4405,-2.4408,0,0,0,0,0,0,-2.4283,-2.4289,-2.4285,-2.4308,-2.4315,-2.4321,-2.4332,-2.4328,-2.4337,-2.4336,-2.4333,-2.4335,-2.4353,-2.4356,-2.4346,-2.4377,-2.4366,-2.4369,-2.4375,-2.4378,-2.4381,-2.438,-2.4335,0,0,0,0,0,-2.4288,-2.4301,-2.4305,-2.4325,-2.4328,-2.433,-2.4336,-2.4335,-2.4342,-2.4344,-2.4348,-2.4354,-2.4365,-2.4372,-2.4382,-2.4403,-2.4404,-2.4413,-2.4415,-2.4418,-2.442,-2.443,-2.4433,-2.4395,-2.4395,-2.4395,0,0,-2.4301,-2.4305,-2.4314,-2.4328,-2.4333,-2.4345,-2.4332,-2.4346,-2.4354,-2.4346,-2.4363,-2.4366,-2.4373,-2.4392,-2.44,-2.4395,-2.443,-2.442,-2.4422,-2.4422,-2.4432,-2.4435,-2.4438,-2.4396,-2.4396,-2.4396,0,0,-2.4328,-2.4334,-2.435,-2.4355,-2.4362,-2.4363,-2.4366,-2.4373,-2.4374,-2.4391,-2.4384,-2.4394,-2.4412,-2.4417,-2.4422,-2.4449,-2.4443,-2.4452,-2.4466,-2.4476,-2.4479,-2.4482,-2.449,-2.4493,-2.4454,-2.4454,-2.4454,0,-2.4343,-2.4361,-2.4359,-2.4372,-2.4378,-2.4371,-2.4386,-2.4391,-2.4401,-2.4405,-2.4398,-2.442,-2.4424,-2.4444,-2.445,-2.4455,-2.4458,-2.4451,-2.4479,-2.4481,-2.4484,-2.4492,-2.4495,-2.4455,-2.4455,-2.4455,-2.4455,0,-2.4377,-2.4389,-2.4401,-2.4411,-2.4418,-2.4432,-2.4431,-2.4439,-2.4436,-2.4436,-2.4452,-2.4457,-2.4467,-2.4471,-2.4469,-2.449,-2.4486,-2.4479,-2.4468,-2.4488,-2.4496,-2.4499,-2.4456,-2.4456,-2.4456,-2.4456,0,0,-2.4416,-2.4422,-2.4427,-2.443,-2.4437,-2.4446,-2.4459,-2.4468,-2.4474,-2.4481,-2.4491,-2.4506,-2.4499,-2.4505,-2.4502,-2.4511,-2.453,-2.4503,-2.4503,-2.4507,-2.4552,-2.4556,-2.456,-2.4527,-2.4527,-2.4528,-2.4551,0,-2.4443,-2.4467,-2.4464,-2.4486,-2.4496,-2.4488,-2.4499,-2.4504,-2.4505,-2.4513,-2.4513,-2.4523,-2.4515,-2.4517,-2.4526,-2.4526,-2.4539,-2.4525,-2.4535,-2.4536,-2.4534,-2.4564,-2.457,-2.4591,-2.4554,-2.4555,-2.4555,0,-2.4479,-2.4486,-2.4509,-2.4512,-2.4516,-2.4527,-2.4534,-2.4542,-2.4547,-2.4546,-2.4551,-2.4547,-2.4559,-2.4547,-2.4563,-2.4553,-2.4557,-2.4558,-2.4559,-2.4559,-2.4546,-2.4565,-2.4598,-2.4601,-2.456,-2.4559,-2.4559,0,-2.4504,-2.4519,-2.4534,-2.4537,-2.4542,-2.4549,-2.4551,-2.4554,-2.456,-2.4566,-2.4569,-2.4576,-2.458,-2.4586,-2.4583,-2.4575,-2.4599,-2.4588,-2.4598,-2.4598,-2.4604,-2.4603,-2.4637,-2.4607,-2.4607,-2.4607,-2.4607,0,-2.4535,-2.4549,-2.4545,-2.4554,-2.4569,-2.4565,-2.458,-2.4581,-2.4584,-2.4592,-2.4586,-2.4594,-2.459,-2.4598,-2.4596,-2.4608,-2.461,-2.461,-2.4609,-2.461,-2.461,-2.4612,-2.461,-2.4608,-2.4608,-2.4608,-2.4607,0,-2.4565,-2.4563,-2.4579,-2.4581,-2.4582,-2.4592,-2.4594,-2.4602,-2.4601,-2.4612,-2.4614,-2.4613,-2.4621,-2.4619,-2.4628,-2.4627,-2.4642,-2.464,-2.4641,-2.464,-2.465,-2.4649,-2.4687,-2.4691,-2.4659,-2.4659,-2.4659,0,-2.4585,-2.4595,-2.4597,-2.4602,-2.4605,-2.4613,-2.4618,-2.4614,-2.4619,-2.4624,-2.4631,-2.4638,-2.4644,-2.4658,-2.4657,-2.4664,-2.4661,-2.4674,-2.4662,-2.4662,-2.466,-2.4659,-2.466,-2.4676,-2.4677,-2.4677,-2.4677,0,-2.4619,-2.4617,-2.4624,-2.463,-2.4636,-2.4641,-2.4645,-2.465,-2.4646,-2.4652,-2.466,-2.4664,-2.4673,-2.468,-2.4685,-2.4687,-2.4681,-2.4681,-2.4683,-2.4684,-2.4684,-2.4683,-2.4646,-2.468,-2.468,-2.4679,-2.4679,-2.4679,-2.4644,-2.4652,-2.4654,-2.4662,-2.4664,-2.4668,-2.4675,-2.4675,-2.4681,-2.4688,-2.4685,-2.4694,-2.4696,-2.4703,-2.4705,-2.4711,-2.4706,-2.471,-2.4711,-2.4712,-2.4713,-2.4683,-2.4712,-2.4712,-2.4712,-2.4712,-2.4712,0,-2.4677,-2.4678,-2.4685,-2.469,-2.4696,-2.4689,-2.4693,-2.4698,-2.4706,-2.4708,-2.4714,-2.4722,-2.4729,-2.4728,-2.4734,-2.4739,-2.4736,-2.474,-2.474,-2.474,-2.4718,-2.4714,-2.4742,-2.4742,-2.4742,-2.4742,-2.4742,-2.4742,-2.4695,-2.4708,-2.4706,-2.4719,-2.4719,-2.4728,-2.473,-2.4733,-2.4735,-2.4744,-2.4749,-2.4749,-2.475,-2.4755,-2.476,-2.476,-2.4762,-2.4767,-2.4765,-2.4745,-2.4742,-2.4739,-2.4736,-2.4768,-2.4768,-2.4787,-2.4787,-2.4787]}]]